Location: Doux
(49.5045°N, 4.4321°E)
Time: 05:21:52
(UTC+00:00)

MSX - Pass Details

Date: 23 May 2024
Orbit: 893 x 906 km, 99.0° (Epoch: 19 June)

Event Time Altitude Azimuth Distance (km) Brightness Sun altitude
Rises 02:02:52 0° 13° (NNE) 3,526 8.3 -12.9°
Reaches altitude 10° 02:05:18 10° 12° (NNE) 2,580 7.4 -12.7°
Maximum altitude 02:11:01 72° 289° (WNW) 944 3.9 -12.2°
Enters shadow 02:15:47 15° 208° (SSW) 2,212 5.2 -11.7°
